SCP
0 0 0 0 0 0 0 0 0 0 0 1 1 1 1 1 1 1 1 1 1 1 1 1 1 1 1 1 1 1 1 1 1 1 1 1 1 1 1 1 0 0 0 0
0 0 0 0 0 0 0 0 0 0 0 1 1 1 1 1 1 1 0 0 1 1 1 1 1 1 1 1 1 1 1 1 1 1 1 1 1 1 1 1 0 0 0 0
0 0 0 0 0 0 0 0 0 0 1 1 1 1 1 1 1 1 0 0 1 1 1 1 1 1 1 1 1 1 1 1 1 1 1 1 1 1 1 1 1 0 0 0
0 0 0 0 0 0 0 0 0 0 1 1 1 1 1 1 1 1 1 1 1 1 1 1 1 1 1 1 1 1 1 1 1 1 1 1 1 1 1 1 1 1 0 0
0 0 0 0 0 0 0 0 0 1 1 1 1 1 1 1 1 1 1 1 1 1 1 1 1 1 1 1 1 1 1 1 1 1 1 1 1 1 1 1 1 0 0 0
0 0 0 0 0 0 0 0 1 1 1 1 1 1 1 1 1 1 1 1 1 1 0 1 1 1 1 1 1 1 1 1 1 1 1 1 1 1 1 1 0 0 0 0
0 0 0 0 0 0 0 1 1 1 1 1 1 1 1 1 1 1 1 1 1 0 0 0 1 1 1 1 1 1 1 1 1 1 1 1 1 1 1 0 0 0 0 0
0 0 0 0 0 0 1 1 1 1 1 1 1 1 1 1 1 1 0 0 0 0 0 0 1 1 1 1 1 1 1 1 1 1 1 1 1 1 0 0 0 0 0 0
0 0 0 0 0 0 1 1 1 1 1 1 1 1 0 0 0 0 0 0 0 0 0 0 1 1 1 1 1 1 1 1 1 1 1 1 0 0 0 0 0 0 0 0
0 0 0 0 0 0 0 0 1 1 1 1 0 0 0 0 0 0 0 0 0 0 0 0 1 1 1 1 1 1 1 1 1 1 1 0 0 0 0 0 0 0 0 0
0 0 0 0 0 0 0 0 0 0 0 0 0 0 0 0 0 0 0 0 0 0 0 0 1 1 1 1 1 1 1 1 1 0 0 0 0 0 0 0 0 0 0 0
0 0 0 0 0 0 0 0 0 0 0 0 0 0 0 0 0 0 0 0 0 0 1 1 1 1 1 1 1 1 0 0 0 0 0 0 0 0 0 0 0 0 0 0
0 0 0 0 0 0 0 0 0 0 0 0 0 0 0 0 0 0 0 0 0 0 1 1 0 0 0 0 0 0 0 0 0 0 0 0 0 0 0 0 0 0 0 0
0 0 0 0 0 0 0 0 0 0 0 0 0 0 0 0 0 0 0 0 0 0 0 0 0 0 0 0 0 0 0 0 0 0 0 0 0 0 0 0 0 0 0 0
0 0 0 0 0 0 0 0 0 0 0 0 0 0 0 0 0 0 0 0 0 0 0 0 0 0 0 0 0 0 0 0 0 0 0 0 0 0 0 0 0 0 0 0
0 0 0 0 0 0 0 0 0 0 0 0 0 0 0 0 0 0 0 0 0 0 0 0 0 0 0 0 0 0 0 0 0 0 0 0 0 0 0 0 0 0 0 0
0 0 0 0 0 0 0 0 0 0 0 0 0 0 0 0 0 0 0 0 0 0 0 0 0 0 0 0 0 0 0 0 0 0 0 0 0 0 0 0 0 0 0 0
0 0 0 0 0 0 0 0 0 0 0 0 0 0 0 0 0 0 0 0 0 0 0 0 0 0 0 0 0 0 0 0 0 0 0 0 0 0 0 0 0 0 0 0
0 0 0 0 0 0 0 0 0 0 0 0 0 0 0 0 0 0 0 0 0 0 0 0 0 0 0 0 0 0 0 0 0 0 0 0 0 0 0 0 0 0 0 0
0 0 0 0 0 0 0 0 0 0 0 0 0 0 0 0 0 0 0 0 0 0 0 0 0 0 0 0 0 0 0 0 0 0 0 0 0 0 0 0 0 0 0 0
0 0 0 0 0 0 0 0 0 0 0 0 0 0 0 0 0 0 0 0 0 0 0 0 0 0 0 0 0 0 0 0 0 0 0 0 0 0 0 0 0 0 0 0
0 0 0 0 0 0 0 0 0 0 0 0 0 0 0 0 0 0 0 0 0 0 0 0 0 0 0 0 0 0 0 0 0 0 0 0 0 0 0 0 0 0 0 0
0 0 0 0 0 0 0 0 0 0 0 0 0 0 0 0 0 0 0 0 0 0 0 0 0 0 0 0 0 0 0 0 0 0 0 0 0 0 0 0 0 0 0 0
0 0 0 0 0 0 0 0 0 0 0 0 0 0 0 0 0 0 0 0 0 0 0 0 0 0 0 0 0 0 0 0 0 0 0 0 0 0 0 0 0 0 0 0
0 0 0 0 0 0 0 0 0 0 0 0 0 0 0 0 0 0 0 0 0 0 0 0 0 0 0 0 0 0 0 0 0 0 0 0 0 0 0 0 0 0 0 0
0 0 0 0 0 0 0 0 0 0 0 0 0 0 0 0 0 0 0 0 0 0 0 0 0 0 0 0 0 0 0 0 0 0 0 0 0 0 0 0 0 0 0 0
0 0 0 0 0 0 0 0 0 0 0 0 0 0 0 0 0 0 0 0 0 0 0 0 0 0 0 0 0 0 0 0 0 0 0 0 0 0 0 0 0 0 0 0
Wind_Speed
11 11 10 11 13 13 12 12 11 7 5 6 6 7 8 7 7 7 7 7 7 7 5 4 4 4 4 5 5 5 5 5 4 4 4 3 3 3 3 2 3 2 2 3
11 12 12 13 13 12 12 10 10 6 3 3 6 6 7 6 5 7 7 7 7 6 5 3 4 4 4 5 5 4 4 4 4 4 4 3 3 3 2 2 3 3 3 3
10 11 11 11 9 9 8 7 6 4 3 5 7 7 6 6 5 7 8 7 7 6 5 3 4 3 4 5 5 4 3 4 4 4 4 4 4 4 3 3 3 3 2 3
8 9 11 6 5 5 4 3 2 2 3 4 6 5 4 4 4 5 7 7 7 6 6 4 4 4 4 4 5 4 3 4 4 4 4 4 3 3 3 2 2 2 2 3
7 9 9 6 3 4 4 1 1 1 2 3 5 5 4 5 5 6 6 6 6 6 6 5 4 4 3 4 4 4 4 3 4 4 4 4 3 3 3 2 2 2 2 2
8 9 8 3 2 3 4 2 3 3 3 3 4 3 4 5 5 6 6 6 6 6 6 5 4 3 3 3 3 3 3 4 3 3 3 3 3 3 2 2 2 2 2 2
9 8 4 4 4 2 5 1 3 2 3 3 2 2 5 6 6 6 6 6 6 6 6 5 4 3 3 3 3 3 2 3 4 3 3 4 3 2 2 1 2 2 2 2
8 8 3 5 2 1 3 3 2 3 3 3 5 6 6 6 6 6 5 5 5 5 5 5 4 4 3 2 2 2 2 3 4 3 3 4 3 2 2 1 1 2 2 2
1 1 3 6 6 6 4 3 3 3 3 4 5 5 5 4 4 5 4 4 4 5 5 4 4 4 3 2 2 2 3 3 3 3 2 3 3 2 2 2 2 2 2 2
1 1 3 5 6 5 3 3 3 3 2 3 4 4 4 4 3 3 4 4 4 5 5 5 4 4 3 3 2 2 3 3 3 3 3 3 2 2 2 2 1 1 1 1
0 1 2 3 4 3 3 3 2 2 2 3 3 4 4 4 3 4 3 3 3 3 4 5 4 4 4 3 3 3 2 3 3 3 3 2 2 0 1 1 1 1 0 1
1 1 1 2 2 1 1 1 1 1 2 3 3 3 3 3 3 3 4 4 3 4 4 4 4 4 3 3 3 3 2 2 2 2 2 3 3 2 3 2 4 4 3 2
1 2 1 1 1 2 2 2 2 3 4 4 3 2 3 4 3 3 4 4 3 3 4 4 4 4 3 3 3 3 2 2 2 2 2 3 3 3 3 2 2 2 2 3
3 2 0 2 1 2 3 3 3 4 5 4 3 3 3 4 4 3 3 3 3 3 3 3 4 3 3 3 3 2 2 2 1 2 2 2 2 2 3 3 3 2 2 4
3 3 1 2 1 1 2 2 3 3 4 3 2 3 4 4 3 3 3 3 3 2 2 3 3 3 2 2 2 2 2 2 1 2 2 2 2 2 2 2 2 3 3 3
2 2 2 2 2 3 3 3 3 3 3 3 3 3 3 3 3 3 3 3 2 2 2 2 2 2 2 1 1 2 2 2 2 2 3 2 2 2 2 2 2 3 3 3
2 2 2 2 2 2 2 2 2 3 3 3 3 3 3 3 3 3 3 2 1 1 1 1 1 1 1 1 2 2 2 2 3 4 3 2 1 2 2 2 2 2 3 4
2 1 2 2 2 2 3 3 3 4 4 4 4 3 3 3 2 2 2 1 1 1 1 1 1 0 1 2 2 2 3 3 3 3 3 2 2 2 2 2 2 2 1 3
2 1 1 1 1 1 2 2 3 3 3 3 4 3 3 2 2 2 2 1 0 1 0 1 1 1 2 1 2 3 4 3 3 3 3 3 4 3 2 2 2 2 2 1
4 3 3 3 3 3 3 3 3 3 3 4 4 4 4 3 3 2 1 1 1 1 0 1 1 2 2 1 3 4 5 4 3 3 3 3 2 2 2 2 2 2 1 1
5 4 4 4 4 3 3 4 4 4 4 4 4 3 3 3 3 2 2 1 2 2 1 0 1 1 1 2 4 5 4 3 3 3 3 2 2 2 2 2 2 1 1 1
4 4 4 4 4 4 4 3 4 4 4 3 3 3 3 2 2 2 2 2 2 2 1 0 1 0 2 3 4 4 4 3 2 2 1 1 1 1 2 1 1 1 1 1
4 4 4 4 3 3 4 3 3 2 2 2 2 2 2 2 1 1 1 1 2 2 2 2 2 2 3 3 3 3 3 2 2 1 0 0 1 1 1 1 1 1 1 1
4 4 4 3 3 3 3 2 2 2 2 2 2 2 1 1 1 1 1 2 2 1 2 2 3 1 2 3 3 3 2 2 2 1 1 1 1 1 1 0 0 0 0 1
3 3 3 3 3 3 2 2 2 3 3 3 3 3 2 2 2 2 2 2 2 1 1 1 1 1 2 2 2 3 3 4 4 3 2 2 2 2 1 2 2 1 1 1
2 2 3 2 2 2 2 2 2 2 2 3 3 2 2 2 2 2 2 2 2 2 2 1 1 1 2 2 2 2 2 1 1 2 2 2 3 3 3 3 3 3 2 1
1 2 1 1 1 2 2 2 2 2 2 2 2 2 2 2 2 2 2 2 2 2 2 3 2 2 2 2 2 3 2 2 2 3 3 2 2 2 2 2 2 2 2 2
Wind_Direction
258 263 260 255 253 249 248 256 256 242 205 178 164 141 127 124 140 144 149 150 147 143 137 135 133 133 131 129 132 132 135 131 133 135 132 125 116 113 105 99 105 102 97 92
255 255 255 251 249 246 245 254 258 248 241 167 129 127 126 130 152 145 148 149 143 136 131 138 133 135 129 125 124 131 137 134 131 136 135 128 120 116 109 91 86 90 90 87
251 254 254 246 246 246 232 234 245 247 233 131 132 136 139 149 161 149 150 147 144 139 135 137 129 123 129 128 124 126 134 135 139 144 142 136 132 119 115 109 98 89 86 91
254 255 250 241 235 249 240 230 230 165 146 136 124 127 125 135 137 139 147 146 140 135 134 137 135 138 135 139 141 145 147 145 140 145 139 130 121 118 114 111 114 108 98 91
244 244 245 246 246 235 248 237 13 115 107 120 122 125 124 121 124 130 131 132 133 133 135 137 141 148 150 153 152 151 148 149 149 146 136 132 125 122 124 125 118 116 112 108
245 248 243 243 299 281 242 219 30 102 130 145 143 161 146 129 124 124 124 127 131 135 135 136 141 153 160 165 159 153 149 156 150 138 138 132 124 125 129 133 130 135 129 127
242 251 247 329 324 281 237 167 24 75 106 109 116 86 122 128 120 112 118 126 134 143 143 146 157 159 170 170 160 154 153 148 138 133 139 133 129 134 149 153 143 147 148 145
233 240 244 351 346 60 47 41 30 85 94 94 96 98 113 121 120 122 129 140 147 148 148 151 163 156 157 171 158 148 144 144 141 144 156 136 133 152 167 162 174 173 169 165
315 222 57 44 54 59 49 40 35 70 97 107 116 123 127 126 131 136 150 152 156 155 152 156 158 150 154 158 161 146 140 144 143 143 137 137 153 171 179 184 201 197 186 179
138 61 70 65 58 51 34 20 48 59 91 128 133 138 142 141 142 149 152 159 172 164 159 162 158 150 137 136 137 134 133 140 143 148 152 154 179 183 181 192 201 215 201 174
163 137 98 83 64 55 19 356 49 65 86 97 124 134 140 144 148 151 153 158 159 153 155 149 150 146 139 137 135 132 140 157 163 163 159 159 169 174 176 125 152 189 49 62
310 4 52 76 48 57 39 340 58 73 92 118 117 134 146 148 144 151 147 135 149 154 148 146 142 136 137 136 131 132 150 166 172 173 166 181 172 145 66 126 124 116 112 115
26 339 19 109 61 55 59 31 60 82 90 97 115 158 143 135 134 136 137 137 139 133 132 134 136 138 140 138 139 149 178 183 185 183 193 200 184 173 161 129 111 122 155 162
13 336 188 95 68 33 38 41 65 74 81 86 110 125 120 129 133 131 128 135 126 114 123 131 135 138 145 144 139 161 191 185 202 205 218 212 198 203 188 177 175 184 199 206
4 354 52 54 47 42 43 64 82 76 76 74 78 98 109 113 118 119 117 113 107 121 130 131 128 135 153 150 154 189 209 199 219 238 238 225 212 215 202 189 199 189 175 195
2 17 37 45 43 46 37 47 71 74 75 75 72 75 86 98 107 107 95 92 102 129 129 122 130 146 164 140 178 215 208 189 216 238 245 233 216 220 216 205 206 198 197 188
10 21 21 29 47 44 32 35 59 63 67 71 71 77 87 88 90 90 85 85 122 133 117 121 125 117 227 213 215 221 215 198 220 241 242 238 228 228 226 224 230 214 196 177
13 10 5 356 2 12 8 22 52 67 71 71 66 74 83 86 88 83 77 100 122 109 104 109 106 160 263 254 236 249 238 217 214 234 239 233 240 246 246 245 240 241 206 171
37 18 18 45 38 41 25 33 51 56 61 74 75 70 73 78 86 76 55 18 175 154 111 96 138 236 248 207 254 254 250 231 214 221 232 212 218 227 235 256 253 233 224 206
29 30 49 57 66 61 53 59 62 60 63 75 73 69 64 54 55 58 46 15 21 41 36 45 263 260 252 234 264 260 254 245 225 221 229 229 218 221 229 240 250 245 239 205
27 35 46 51 65 64 61 61 65 63 59 69 68 64 62 53 45 43 26 32 47 33 11 45 275 294 295 289 264 266 259 242 235 229 226 227 225 231 241 251 258 267 272 249
33 39 41 43 57 67 75 77 77 73 67 62 57 55 60 60 46 37 26 22 57 42 352 254 266 27 318 289 264 269 266 252 249 242 232 238 239 238 256 272 273 291 305 319
36 40 39 39 54 66 82 92 94 86 80 73 64 59 52 42 35 23 17 26 48 30 338 353 39 41 341 294 295 297 291 287 288 288 283 271 262 257 299 313 345 356 334 323
38 44 41 42 42 50 66 74 84 80 75 72 69 56 36 23 12 36 62 95 76 36 352 60 92 35 304 288 307 310 312 320 328 346 358 359 355 15 4 306 273 263 282 309
28 35 47 47 44 46 55 57 65 64 57 51 51 48 37 29 29 23 24 57 82 66 21 89 145 251 281 308 327 342 6 12 15 17 15 2 4 20 27 20 15 21 22 35
37 34 47 37 34 27 32 36 46 52 46 41 35 36 48 60 55 35 22 20 30 17 352 15 28 308 312 326 333 357 12 16 20 14 18 16 18 20 23 23 27 20 25 54
58 57 42 24 36 35 31 37 40 49 54 47 20 12 22 38 39 29 23 16 17 17 1 349 346 348 344 350 9 23 27 22 25 27 21 18 22 21 17 13 22 32 32 46